Location: Cerezo de Arriba
(41.2389°N, 3.5585°W)
Time: 03:59:42
(UTC+00:00)

Cosmos 1975 - Pass Details

Date: 19 May 2025
Orbit: 487 x 505 km, 82.5° (Epoch: 23 June)

Event Time Altitude Azimuth Distance (km) Brightness Sun altitude
Rises 22:47:43 0° 360° (N) 2,569 7.3 -25.8°
Reaches altitude 10° 22:49:57 10° 9° (N) 1,683 6.1 -26.0°
Enters shadow 22:51:59 26° 32° (NNE) 984 4.4 -26.1°
